Weather in Moseytsevo

Russia / Yaroslavl Oblast     57°06′37″N   39°44′24″E
temp.,
°C
wind,
m/s
gust,
m/s
humid.,
%
clouds,
%
prec.,
mm/h
press.,
hPa
HPBL,
m
26 may, thu
thu2600:00+5w3778100 0.0 1011133
03:00+4w389279 0.0 1011168
06:00+6wsw368693 0.0 1010293
09:00+6wsw2490100 0.2 1009335
12:00+11wsw2469100 0.1 10081278
15:00+13ssw136152 0.2 1006918
18:00+14ene226895 0.0 1003250
21:00+9ese4684100 0.0 100273
27 may, fri
fri2700:00+8s3685100 0.0 1000100
03:00+9ssw3495100 0.0 99885
06:00+10wsw2695100 0.5 997204
09:00+11w5890100 2.1 997412
12:00+14w5572100 0.3 997986
15:00+14wsw5676100 1.0 998920
18:00+13w4784100 1.9 998643
21:00+9wsw499613 2.8 999241
28 may, sat
sat2800:00+7sw48965 0.3 999171
03:00+6sw36955 0.3 999111
06:00+7ssw35915 0.0 998169
09:00+12ssw467893 0.1 997883
12:00+11wsw698380 2.3 9971048
15:00+12wsw9127799 4.1 9991655
18:00+8wsw81291100 0.8 10001159
21:00+7wsw71395100 3.4 10021149
29 may, sun
sun2900:00+7sw81494100 3.9 1004634
03:00+5sw5129441 4.1 1006379
06:00+6ssw49925 0.0 1008295
09:00+11sw5774100 0.0 1008872
12:00+12sw5672100 1.1 10091162
15:00+15wsw586311 3.3 10101624
18:00+14sw596679 0.2 1012601
21:00+10sw337917 0.2 101434
30 may, mon
mon3000:00+8sw35885 0.0 101674
03:00+7sw3794100 0.0 1018119
06:00+9s3790100 0.0 1019201
09:00+15ssw587267 0.0 1019782
12:00+17sw676380 0.3 10201573
15:00+17ssw4768100 0.4 1019601
18:00+16ssw3677100 0.1 1020168
21:00+13ssw227999 0.1 102122